Probability
3 19 61 55 55 52 52 42 39 48 52 55 52 58 52 55 58 48 52 52 55 52 55 55 55 58 58 58 55 45 48 52 45 48 55 55 58 55 61 68 58 61 74
16 45 61 52 45 45 42 42 45 45 45 48 55 58 55 55 48 52 52 52 45 52 48 39 35 48 45 52 45 45 48 45 42 45 42 42 48 52 65 55 48 45 61
23 42 58 55 45 42 48 45 39 48 52 52 61 55 55 52 45 45 45 39 45 42 35 35 39 35 35 32 39 29 32 39 32 29 29 13 35 52 52 58 48 52 48
23 29 39 65 55 48 45 48 48 52 48 52 52 48 42 45 42 32 32 32 39 39 35 39 39 35 35 32 23 26 29 39 35 23 16 13 10 32 52 55 58 48 52
23 26 55 61 52 48 45 45 48 48 45 48 55 42 39 35 35 42 32 29 29 29 29 32 26 32 29 26 23 29 23 35 26 16 10 3 6 26 45 45 45 52 45
26 32 48 61 52 55 42 45 42 45 48 48 42 42 39 35 35 29 23 23 29 26 26 26 19 23 23 29 29 32 23 29 16 10 3 6 6 35 39 35 39 42 29
29 32 39 58 48 52 55 45 45 45 58 58 52 42 45 32 32 26 23 23 23 29 29 26 26 26 29 29 35 35 29 32 6 3 3 6 10 35 39 42 42 39 29
23 29 45 58 52 52 55 52 58 52 55 42 42 42 42 35 29 29 29 26 19 19 23 19 26 23 19 23 23 26 26 23 3 0 3 6 16 26 23 32 23 32 35
19 29 26 32 45 45 52 48 55 55 48 48 39 39 39 42 32 26 29 26 26 23 19 19 23 26 23 29 19 19 13 10 0 0 3 6 29 32 23 23 19 26 19
16 13 16 19 19 23 32 48 55 52 48 52 52 45 42 32 19 23 16 23 26 26 16 23 32 29 29 32 26 26 13 6 0 0 3 6 23 16 13 19 23 19 23
16 13 10 13 3 10 13 26 35 42 35 45 39 48 32 6 6 6 16 26 19 13 23 32 29 26 23 26 23 19 6 0 0 0 3 10 23 16 16 19 13 13 13
6 10 6 6 3 3 6 13 13 13 10 13 10 10 10 3 6 6 13 26 29 23 26 23 23 19 13 0 0 3 0 0 0 0 10 23 23 29 16 23 23 16 6
6 13 10 3 3 3 3 3 0 0 0 0 0 3 3 0 0 3 3 3 6 10 10 6 3 3 3 0 0 0 0 0 0 0 10 26 23 19 23 16 16 19 19
3 6 10 3 3 3 3 3 0 0 0 0 0 0 0 0 0 0 0 0 0 3 3 3 0 0 0 0 0 0 0 0 0 0 6 26 19 23 19 16 16 19 13
3 6 3 3 3 3 0 3 3 3 0 0 0 0 0 0 0 0 0 0 0 0 0 0 0 0 0 0 0 0 0 0 0 0 0 16 32 26 16 13 16 16 13
3 3 0 0 0 0 0 0 3 3 0 0 0 0 0 0 0 0 0 0 0 0 0 0 0 0 0 0 0 0 0 0 0 0 0 3 13 23 19 13 16 13 13
3 3 0 0 0 0 0 0 0 0 0 0 0 0 0 0 0 0 0 0 0 0 0 0 0 0 0 0 0 0 0 0 0 0 0 0 0 6 16 13 10 10 6
3 3 0 0 0 0 0 0 0 0 0 0 0 0 0 0 0 0 0 0 0 0 0 0 0 0 0 0 0 0 0 0 0 0 0 0 0 0 6 10 10 10 3
3 3 3 0 0 0 0 0 0 0 0 0 0 0 0 0 0 0 0 0 0 0 0 0 0 0 0 0 0 0 0 0 0 0 0 0 0 0 0 0 10 6 6
3 0 0 0 0 0 0 0 0 0 0 0 0 0 0 0 0 0 0 0 0 0 0 0 0 0 0 0 0 0 0 0 0 0 0 0 0 0 0 0 0 0 6
0 0 0 0 0 0 0 0 0 0 0 0 0 0 0 0 0 0 0 0 0 0 0 0 0 0 0 0 0 0 0 0 0 0 0 0 0 0 0 0 0 0 0
0 0 0 0 0 0 0 0 0 0 0 0 0 0 0 0 0 0 0 0 0 0 0 0 0 0 0 0 0 0 0 0 0 0 0 0 0 0 0 0 0 0 0
0 0 0 0 0 0 0 0 0 0 0 0 0 0 0 0 0 0 0 0 0 0 0 0 0 0 0 0 0 0 0 0 0 0 0 0 0 0 0 0 0 0 0
0 0 0 0 0 0 0 0 0 0 0 0 0 0 0 0 0 0 0 0 0 0 0 0 0 0 0 0 0 0 0 0 0 0 0 0 0 0 0 0 0 0 0
0 0 0 0 0 0 0 0 0 0 0 0 0 0 0 0 0 0 0 0 0 0 0 0 0 0 0 0 0 0 0 0 0 0 0 0 0 0 0 0 0 0 0
0 0 0 0 0 0 0 0 0 0 0 0 0 0 0 0 0 0 0 0 0 0 0 0 0 0 0 0 0 0 0 0 0 0 0 0 0 0 0 0 0 0 0
Height
5882 5882 5882 5881 5881 5881 5881 5881 5881 5881 5881 5880 5880 5880 5880 5879 5879 5879 5878 5878 5877 5877 5877 5876 5876 5875 5875 5875 5874 5874 5874 5874 5873 5873 5872 5872 5872 5871 5871 5871 5871 5871 5871
5882 5881 5881 5881 5881 5881 5880 5880 5880 5880 5880 5880 5879 5879 5879 5879 5878 5878 5877 5877 5876 5876 5876 5875 5875 5875 5874 5874 5873 5873 5873 5873 5872 5872 5871 5871 5871 5871 5870 5870 5870 5870 5870
5881 5881 5880 5880 5880 5880 5880 5880 5879 5879 5879 5879 5878 5878 5878 5877 5877 5876 5876 5876 5875 5875 5874 5874 5874 5874 5873 5873 5872 5872 5872 5871 5871 5871 5870 5870 5870 5869 5869 5869 5869 5869 5869
5880 5880 5880 5879 5879 5879 5879 5879 5878 5878 5878 5877 5877 5877 5876 5876 5875 5875 5875 5874 5874 5874 5873 5873 5873 5872 5872 5871 5871 5870 5870 5870 5870 5869 5869 5869 5868 5868 5868 5868 5868 5868 5868
5879 5879 5879 5878 5878 5878 5878 5877 5877 5877 5877 5876 5876 5876 5875 5874 5874 5873 5873 5873 5872 5872 5872 5871 5871 5871 5870 5870 5869 5869 5868 5868 5868 5867 5867 5867 5867 5866 5866 5866 5866 5866 5866
5878 5878 5877 5877 5877 5877 5877 5876 5876 5876 5875 5875 5875 5874 5873 5873 5872 5872 5871 5871 5871 5870 5870 5869 5869 5869 5868 5868 5867 5867 5866 5866 5866 5865 5865 5865 5865 5864 5864 5864 5864 5864 5864
5877 5876 5876 5876 5876 5875 5875 5875 5874 5874 5874 5874 5873 5872 5872 5871 5870 5870 5869 5869 5869 5868 5868 5868 5867 5867 5866 5866 5865 5865 5864 5864 5864 5863 5863 5863 5862 5862 5862 5862 5862 5862 5861
5875 5875 5874 5874 5874 5874 5873 5873 5872 5872 5872 5872 5871 5870 5870 5869 5869 5868 5867 5867 5867 5866 5866 5865 5865 5865 5864 5864 5863 5863 5863 5862 5862 5861 5861 5861 5860 5860 5860 5860 5859 5859 5859
5874 5873 5873 5872 5872 5872 5871 5871 5870 5870 5870 5869 5869 5868 5868 5867 5866 5866 5865 5865 5864 5864 5864 5863 5863 5862 5862 5861 5861 5861 5860 5860 5859 5859 5859 5858 5858 5858 5857 5857 5857 5857 5857
5872 5871 5871 5871 5870 5870 5869 5869 5868 5868 5867 5867 5866 5866 5865 5865 5864 5864 5863 5863 5862 5861 5861 5861 5860 5860 5859 5859 5859 5858 5858 5857 5857 5857 5856 5856 5856 5855 5855 5855 5855 5854 5854
5870 5870 5869 5869 5868 5868 5867 5866 5866 5865 5865 5864 5864 5863 5863 5862 5862 5861 5860 5860 5860 5859 5859 5858 5858 5857 5857 5857 5856 5856 5856 5855 5855 5855 5854 5854 5853 5853 5853 5852 5852 5852 5851
5868 5868 5867 5867 5866 5866 5865 5864 5863 5863 5862 5862 5861 5860 5860 5859 5859 5858 5858 5857 5857 5857 5856 5856 5856 5855 5855 5854 5854 5853 5853 5853 5852 5852 5852 5851 5851 5851 5850 5850 5850 5849 5849
5866 5866 5865 5864 5864 5863 5863 5862 5861 5860 5859 5859 5858 5857 5856 5856 5856 5855 5855 5855 5854 5854 5854 5854 5853 5853 5852 5851 5851 5851 5850 5850 5850 5849 5849 5849 5848 5848 5848 5848 5847 5847 5847
5864 5863 5862 5862 5861 5860 5860 5859 5858 5857 5856 5856 5855 5854 5853 5853 5853 5852 5852 5852 5852 5851 5851 5851 5851 5850 5849 5849 5848 5848 5847 5847 5847 5847 5846 5846 5846 5846 5845 5845 5845 5844 5844
5862 5861 5860 5859 5858 5858 5857 5856 5855 5854 5853 5852 5851 5851 5850 5850 5850 5849 5849 5849 5849 5848 5848 5848 5848 5847 5847 5846 5845 5845 5845 5844 5844 5844 5844 5843 5843 5843 5843 5842 5842 5842 5841
5860 5858 5857 5856 5855 5855 5854 5853 5852 5851 5850 5849 5849 5848 5847 5847 5846 5846 5846 5845 5845 5845 5845 5845 5845 5844 5844 5843 5842 5842 5842 5841 5841 5841 5841 5841 5840 5840 5840 5839 5839 5839 5838
5857 5856 5855 5854 5853 5852 5851 5850 5849 5848 5847 5847 5846 5845 5844 5844 5843 5843 5842 5842 5842 5842 5841 5841 5841 5841 5841 5840 5840 5839 5839 5838 5838 5837 5837 5837 5837 5837 5837 5836 5836 5836 5835
5854 5853 5852 5851 5850 5849 5848 5847 5846 5845 5844 5844 5843 5842 5841 5840 5840 5840 5839 5839 5839 5839 5838 5838 5838 5838 5837 5837 5837 5836 5836 5835 5835 5835 5834 5834 5834 5834 5834 5833 5833 5833 5832
5851 5850 5849 5848 5847 5846 5845 5844 5843 5842 5841 5840 5839 5839 5838 5837 5837 5836 5836 5836 5835 5835 5835 5835 5835 5834 5834 5834 5833 5833 5833 5832 5832 5832 5831 5831 5831 5831 5830 5830 5830 5829 5829
5848 5847 5846 5845 5844 5843 5842 5841 5840 5838 5837 5837 5836 5835 5835 5834 5833 5833 5832 5832 5832 5832 5831 5831 5831 5831 5831 5830 5830 5829 5829 5829 5828 5828 5828 5828 5828 5827 5827 5827 5827 5826 5826
5846 5845 5843 5842 5841 5840 5839 5838 5836 5835 5834 5833 5833 5832 5831 5830 5829 5829 5829 5828 5828 5828 5828 5827 5827 5827 5827 5826 5826 5826 5825 5825 5825 5825 5824 5824 5824 5824 5824 5823 5823 5823 5823
5844 5842 5840 5839 5838 5837 5836 5834 5833 5832 5831 5830 5829 5828 5828 5827 5826 5825 5825 5824 5824 5824 5824 5823 5823 5823 5823 5822 5822 5822 5822 5822 5821 5821 5821 5820 5820 5820 5820 5819 5819 5819 5819
5840 5839 5837 5836 5834 5833 5832 5831 5829 5828 5827 5826 5825 5825 5824 5823 5822 5821 5821 5820 5820 5819 5819 5819 5819 5819 5818 5818 5818 5818 5817 5817 5817 5817 5816 5817 5817 5816 5816 5816 5815 5815 5815
5837 5835 5834 5832 5831 5830 5828 5827 5826 5825 5824 5823 5822 5821 5820 5819 5818 5817 5817 5816 5816 5815 5815 5815 5815 5815 5814 5814 5813 5813 5813 5813 5813 5813 5813 5812 5812 5812 5812 5812 5812 5811 5811
5834 5832 5830 5829 5828 5826 5825 5823 5822 5821 5820 5819 5818 5817 5816 5815 5815 5814 5813 5813 5812 5812 5811 5811 5811 5810 5810 5810 5809 5809 5809 5809 5809 5809 5808 5808 5808 5808 5808 5808 5808 5807 5807
5830 5829 5827 5825 5824 5822 5821 5820 5818 5817 5816 5815 5815 5814 5813 5812 5811 5810 5810 5809 5809 5808 5807 5807 5807 5807 5806 5806 5805 5805 5804 5804 5805 5805 5804 5804 5804 5804 5804 5804 5803 5803 5803
Wind_Speed
1 1 1 2 2 2 3 2 2 3 3 3 3 4 4 4 4 5 5 4 5 5 6 6 6 5 5 5 5 5 6 5 5 5 5 4 4 4 5 5 5 4 5
2 2 2 3 4 4 4 4 4 4 5 5 5 5 5 5 6 6 6 6 6 6 7 7 7 7 7 6 6 7 6 6 6 5 5 6 6 5 5 6 6 6 6
3 3 4 5 5 5 5 5 5 5 6 6 6 6 7 7 7 8 8 7 7 7 8 8 8 8 8 8 8 7 7 7 7 7 6 6 6 6 6 6 7 7 7
4 4 5 5 6 6 6 6 6 6 6 6 7 7 8 8 8 9 9 9 9 9 8 9 9 9 9 9 9 8 8 8 9 8 8 8 8 8 8 8 8 9 9
5 5 6 6 6 6 6 6 7 7 7 7 7 8 8 8 8 9 9 10 10 9 9 9 10 10 10 10 10 10 10 9 9 9 9 9 9 9 10 9 9 10 10
5 5 5 6 6 7 7 8 7 7 8 8 8 8 8 8 8 9 9 10 10 10 10 10 10 10 10 10 11 11 10 10 10 10 10 10 10 10 10 10 10 10 11
6 5 5 6 6 7 8 8 8 8 8 9 9 8 8 8 9 9 9 10 10 10 10 10 10 10 11 10 11 10 10 10 10 10 10 10 11 11 11 10 10 11 11
6 6 6 6 7 7 8 9 9 9 9 10 10 9 9 9 9 9 9 9 9 9 10 10 10 10 10 11 11 10 10 10 11 11 10 11 11 11 11 11 11 11 12
7 7 7 7 7 7 8 9 10 10 10 11 11 11 11 11 10 10 10 10 10 10 10 10 10 10 10 10 10 10 10 10 11 11 11 11 10 11 11 12 12 12 11
7 8 8 8 8 8 9 9 10 10 10 11 11 12 11 11 11 11 11 11 11 11 10 10 10 10 10 10 10 10 10 10 10 10 11 11 11 11 11 11 12 12 11
7 8 8 9 9 10 9 9 10 11 11 11 11 12 11 11 12 12 11 11 11 10 10 10 10 10 10 10 10 10 10 10 10 10 10 10 10 11 11 11 11 11 10
8 8 8 9 10 10 10 10 11 12 12 12 12 12 12 12 12 12 12 12 11 10 10 10 10 10 11 10 11 11 11 11 11 10 11 11 11 11 11 11 11 11 10
8 8 9 10 10 11 11 11 11 12 12 13 12 12 12 12 12 12 12 12 12 11 11 11 11 11 12 11 11 11 11 11 11 11 12 12 12 11 11 11 11 11 11
9 9 10 10 11 11 11 11 11 11 12 12 12 12 12 12 12 12 11 13 12 12 12 12 13 13 12 12 11 11 11 11 11 12 11 12 12 12 12 11 11 12 12
9 10 10 10 11 11 11 10 11 11 11 11 11 11 12 12 11 11 12 12 12 12 12 12 12 12 12 12 12 11 11 11 12 12 12 12 12 12 12 12 12 13 13
10 10 10 10 10 10 10 10 11 11 10 11 11 11 11 11 10 12 12 12 12 12 12 11 11 12 12 12 12 11 11 12 12 12 12 12 12 13 12 12 12 12 12
10 11 11 10 10 10 10 11 11 11 11 11 11 11 11 11 12 12 12 12 12 12 12 11 11 12 12 12 12 12 12 12 12 12 12 12 12 13 13 13 13 12 12
11 11 11 10 10 10 11 11 12 12 12 12 11 11 11 11 11 12 12 12 12 12 12 11 11 12 12 12 11 11 11 12 11 11 12 12 12 12 13 13 13 13 13
11 11 11 11 11 11 11 11 11 11 12 12 12 12 12 12 12 12 13 12 12 12 12 12 12 12 12 12 12 11 11 11 12 12 12 12 12 12 12 13 12 12 12
11 11 11 11 11 11 12 12 12 12 12 12 12 11 12 12 12 12 12 12 12 13 13 13 13 13 12 12 12 12 12 12 12 13 13 13 12 12 13 13 13 13 13
12 12 12 12 12 12 12 12 12 12 12 12 11 11 11 12 12 12 12 12 13 13 13 13 13 13 13 13 13 13 13 13 13 13 14 13 13 14 14 13 13 13 13
12 13 13 13 13 13 13 13 13 12 12 12 12 12 11 12 12 12 12 12 13 13 13 13 13 13 13 13 13 13 14 14 14 14 14 14 14 14 14 14 14 14 14
13 14 14 13 12 13 13 13 13 12 12 12 12 12 12 12 12 12 12 13 13 13 13 14 13 13 13 13 14 14 14 15 15 15 15 14 14 14 14 14 14 14 14
13 13 14 13 13 13 13 13 13 12 12 12 12 12 12 12 12 12 12 12 13 13 14 14 14 14 14 14 14 14 14 14 15 16 16 16 15 15 15 14 15 14 14
13 13 14 14 14 13 13 13 13 13 13 13 12 12 12 12 12 12 12 13 13 13 13 14 13 14 14 14 14 14 14 14 15 16 15 15 15 15 15 15 14 14 14
14 13 13 14 13 13 13 13 13 13 13 13 13 13 13 13 13 13 13 13 14 13 14 14 14 14 14 14 14 15 15 15 16 15 15 15 15 15 15 15 15 15 15
Wind_Direction
287 288 264 265 259 261 246 247 267 265 275 283 286 288 286 287 281 274 269 270 271 264 258 260 260 261 263 267 270 272 270 274 278 279 271 262 264 267 261 253 246 249 250
276 272 254 254 257 255 253 257 263 264 268 274 277 280 282 280 276 273 270 269 269 268 266 265 262 265 267 272 277 277 275 272 276 279 275 268 265 268 264 253 254 256 254
279 273 263 261 262 261 261 262 265 265 266 273 277 276 277 276 272 270 271 271 269 269 268 263 263 267 270 274 277 276 276 274 276 278 275 274 267 267 264 257 255 258 258
283 279 277 271 266 261 261 264 268 269 272 277 279 280 281 277 270 267 270 271 270 271 270 267 264 269 273 275 276 275 275 277 276 274 273 273 270 266 265 261 260 261 260
282 283 281 276 267 263 267 269 269 269 272 277 280 281 281 280 274 271 270 270 270 270 270 271 270 271 273 275 276 275 276 276 277 272 272 273 270 266 266 265 264 262 260
286 284 279 272 266 269 272 271 271 274 275 276 279 279 280 281 279 275 273 272 271 271 271 272 274 270 273 275 276 276 276 275 276 273 271 269 267 266 266 266 266 264 262
289 286 281 274 270 272 274 272 273 275 279 278 280 281 281 283 283 279 277 276 272 268 270 271 272 273 273 274 277 277 277 274 274 272 269 266 264 265 267 267 270 269 266
291 288 280 275 275 277 279 274 271 275 279 277 279 280 281 282 283 282 278 278 276 273 272 274 271 273 276 276 275 275 277 275 275 274 273 269 266 266 268 270 272 271 269
286 285 282 277 277 281 285 279 274 274 278 279 278 278 280 280 280 280 278 277 276 275 275 273 272 274 277 276 275 275 275 275 277 277 275 272 271 272 271 271 271 271 270
285 282 281 279 281 282 283 282 278 277 278 279 278 279 279 278 278 279 278 275 275 272 272 273 273 276 276 275 275 276 277 275 275 276 274 272 271 273 274 273 271 272 267
293 288 284 280 278 280 280 281 281 282 284 282 280 281 279 277 276 278 278 274 271 270 271 273 275 279 278 278 278 280 280 276 275 276 274 272 271 271 273 274 275 275 268
292 293 291 287 281 280 280 280 281 282 283 283 281 281 278 276 274 276 273 271 269 268 270 271 275 279 280 277 277 279 278 275 276 275 272 271 271 272 274 276 276 276 274
291 295 294 295 291 287 284 283 285 285 283 282 281 282 277 274 272 274 272 271 267 267 268 271 274 277 280 279 278 280 279 276 275 274 272 271 272 273 275 274 273 274 275
290 291 292 295 294 293 291 289 288 288 286 282 280 279 274 272 274 274 273 270 264 264 267 269 274 276 279 280 280 281 280 278 277 274 271 270 272 273 274 275 274 275 276
299 295 294 295 294 294 293 293 291 293 290 285 281 279 275 271 273 273 272 272 269 266 268 272 274 277 278 278 278 278 279 277 277 273 270 269 271 273 272 273 274 274 274
304 301 298 295 297 297 295 293 291 292 292 287 285 283 279 278 273 275 275 274 273 271 269 271 275 277 277 278 279 278 278 278 276 272 270 269 270 270 269 270 271 273 273
304 303 302 300 298 295 295 294 292 290 288 288 284 284 283 279 277 276 275 274 274 272 269 269 272 276 279 279 279 279 280 280 276 272 270 269 267 268 270 269 269 272 274
307 306 305 306 300 297 297 295 292 289 285 282 281 279 279 278 277 274 273 272 271 270 270 271 274 277 278 278 277 277 282 281 278 276 271 271 270 270 268 267 268 269 272
308 308 307 305 301 298 297 296 295 290 286 281 281 277 274 275 276 275 272 272 272 271 272 273 275 276 276 275 274 277 279 279 278 276 274 274 271 270 269 268 267 268 270
305 305 306 304 300 298 296 295 294 288 286 283 280 277 275 276 273 271 270 271 273 274 273 275 275 275 274 274 273 274 276 277 277 276 274 274 273 272 272 269 269 271 271
305 306 304 302 299 297 295 295 294 290 286 284 278 277 277 275 273 273 272 272 273 274 274 275 275 274 273 273 272 272 272 274 274 275 273 270 272 273 271 270 270 270 272
304 304 303 300 297 295 294 293 293 291 288 285 281 280 279 277 275 271 271 273 273 273 273 274 275 275 274 274 274 272 270 272 270 273 271 268 270 271 269 269 269 270 272
306 307 305 302 297 294 294 292 291 288 285 284 282 281 280 279 279 278 274 274 272 271 272 274 275 275 277 275 274 273 272 272 271 271 271 272 272 271 270 267 268 269 272
306 306 305 302 298 296 294 292 291 288 285 283 282 280 279 279 280 279 276 275 275 272 273 273 274 274 276 275 274 273 270 271 272 270 270 271 271 270 267 266 267 269 272
304 304 302 300 299 297 295 292 289 287 285 284 281 280 280 279 279 276 276 275 277 275 276 275 274 275 275 276 275 273 269 268 271 272 271 270 269 267 265 266 266 267 272
303 303 300 298 299 297 295 292 288 285 284 281 278 278 279 278 276 274 277 277 275 274 276 276 275 276 276 275 277 276 272 270 272 272 269 268 268 267 268 268 267 267 270